Edinburg, TX

6:18 PM CST on November 18, 2017 (GMT -0600)
Edinburg

Weather History for KEBG - January, 2014

Change the Weather History Date:

Sunday, January 5, 2014

  Actual Average (KMFE) Record (KMFE)
Temperature  
Mean Temperature 62 °F -  
Max Temperature 73 °F 69 °F 86 °F (1946)
Min Temperature 51 °F 49 °F 30 °F (1884)
Degree Days  
Heating Degree Days 3    
Growing Degree Days 12 (Base 50)    
Moisture  
Dew Point 48 °F    
Average Humidity 63    
Maximum Humidity 88    
Minimum Humidity 35    
Precipitation  
Precipitation 0.00 in - - ()
Sea Level Pressure  
Sea Level Pressure 30.02 in    
Wind  
Wind Speed 10 mph (NNW)    
Max Wind Speed 26 mph    
Max Gust Speed 34 mph    
Visibility 10 miles    
Events      
Averages and records for this station are not official NWS values.
T = Trace of Precipitation, MM = Missing Value Source: NWS Daily Summary

Daily Weather History Graph

Daily Weather History Graph

Search for Another Location

Airport or City:

Trip Planner

Search our weather history database for the weather conditions in past years. The results will help you decide how hot, cold, wet, or windy it might be!

Date:

Astronomy

Jan. 05, 2014 Rise Set
Actual Time 7:21 AM CST 5:54 PM CST
Civil Twilight 6:56 AM CST 6:19 PM CST
Nautical Twilight 6:27 AM CST 6:48 PM CST
Astronomical Twilight 5:59 AM CST 7:16 PM CST
Moon 10:33 AM CST (1/5) 10:51 PM CST (1/5)
Length of Visible Light 11h 23m
Length of Day
10h 33m
Waxing Crescent, 25% of the Moon is Illuminated
Jan 5
Waxing Crescent
Jan 7
First Quarter
Jan 15
Full
Jan 23
Last Quarter
Jan 30
New

Hourly Weather History & Observations

Time (CST) Temp. Dew Point Humidity Pressure Visibility Wind Dir Wind Speed Gust Speed Precip Events Conditions
12:15 AM 61.9 °F 57.2 °F 85% 29.88 in 10.0 mi South 6.9 mph - N/A   Clear
12:35 AM 61.7 °F 57.2 °F 85% 29.87 in 10.0 mi South 5.8 mph - N/A   Clear
12:55 AM 61.2 °F 57.2 °F 87% 29.87 in 10.0 mi South 9.2 mph - N/A   Clear
1:15 AM 61.7 °F 57.7 °F 87% 29.86 in 10.0 mi South 8.1 mph - N/A   Clear
1:35 AM 61.9 °F 57.9 °F 87% 29.86 in 10.0 mi South 10.4 mph - N/A   Clear
1:55 AM 61.9 °F 58.1 °F 87% 29.85 in 10.0 mi SSE 10.4 mph - N/A   Clear
2:15 AM 61.7 °F 57.7 °F 87% 29.85 in 10.0 mi South 10.4 mph - N/A   Clear
2:35 AM 62.2 °F 58.3 °F 87% 29.85 in 10.0 mi South 9.2 mph - N/A   Clear
2:55 AM 62.6 °F 58.5 °F 86% 29.85 in 10.0 mi South 9.2 mph 16.1 mph N/A   Clear
3:15 AM 62.8 °F 58.6 °F 86% 29.84 in 10.0 mi South 13.8 mph 18.4 mph N/A   Clear
3:35 AM 63.0 °F 58.5 °F 85% 29.84 in 10.0 mi South 12.7 mph 18.4 mph N/A   Clear
3:55 AM 63.1 °F 58.6 °F 85% 29.85 in 10.0 mi South 10.4 mph 17.3 mph N/A   Clear
4:15 AM 63.0 °F 58.6 °F 86% 29.85 in 10.0 mi South 10.4 mph - N/A   Clear
4:35 AM 63.1 °F 58.8 °F 86% 29.84 in 10.0 mi South 13.8 mph - N/A   Clear
4:55 AM 63.5 °F 58.8 °F 85% 29.85 in 10.0 mi South 9.2 mph - N/A   Clear
5:15 AM 63.5 °F 59.0 °F 85% 29.84 in 10.0 mi South 9.2 mph - N/A   Clear
5:35 AM 63.5 °F 58.6 °F 84% 29.83 in 10.0 mi South 10.4 mph - N/A   Clear
5:55 AM 63.9 °F 58.6 °F 83% 29.84 in 10.0 mi South 9.2 mph - N/A   Clear
6:15 AM 63.5 °F 58.3 °F 83% 29.84 in 10.0 mi South 8.1 mph - N/A   Clear
6:35 AM 63.0 °F 58.1 °F 84% 29.85 in 10.0 mi South 5.8 mph - N/A   Clear
6:55 AM 62.6 °F 57.7 °F 84% 29.86 in 10.0 mi South 5.8 mph - N/A   Clear
7:15 AM 61.7 °F 57.4 °F 86% 29.86 in 10.0 mi South 4.6 mph - N/A   Clear
7:35 AM 61.2 °F 57.2 °F 87% 29.87 in 10.0 mi South 4.6 mph - N/A   Clear
7:55 AM 61.0 °F 57.2 °F 87% 29.88 in 10.0 mi SSE 4.6 mph - N/A   Clear
8:15 AM 61.7 °F 58.1 °F 88% 29.88 in 10.0 mi South 4.6 mph - N/A   Clear
8:35 AM 62.1 °F 58.3 °F 87% 29.90 in 10.0 mi SSW 3.5 mph - N/A   Clear
8:55 AM 63.1 °F 58.5 °F 85% 29.91 in 10.0 mi South 5.8 mph - N/A   Clear
9:15 AM 64.8 °F 58.5 °F 80% 29.91 in 10.0 mi South 5.8 mph - N/A   Clear
9:35 AM 66.4 °F 58.3 °F 75% 29.93 in 10.0 mi SSW 5.8 mph - N/A   Clear
9:55 AM 68.0 °F 58.3 °F 71% 29.93 in 10.0 mi SW 5.8 mph - N/A   Clear
10:15 AM 69.4 °F 57.9 °F 67% 29.94 in 10.0 mi SW 6.9 mph - N/A   Clear
10:35 AM 69.8 °F 57.6 °F 65% 29.94 in 10.0 mi SSW 6.9 mph - N/A   Clear
10:55 AM 70.7 °F 57.9 °F 64% 29.94 in 10.0 mi South 4.6 mph - N/A   Clear
11:15 AM 71.8 °F 58.1 °F 62% 29.98 in 10.0 mi NNW 16.1 mph 24.2 mph N/A   Scattered Clouds
11:35 AM 73.6 °F 57.2 °F 56% 29.97 in 10.0 mi North 18.4 mph 25.3 mph N/A   Scattered Clouds
11:55 AM 71.4 °F 55.8 °F 58% 29.98 in 10.0 mi North 17.3 mph 23.0 mph N/A   Clear
12:15 PM 70.0 °F 55.4 °F 60% 29.98 in 10.0 mi North 17.3 mph - N/A   Clear
12:35 PM 70.2 °F 55.2 °F 59% 29.97 in 10.0 mi North 16.1 mph 21.9 mph N/A   Clear
12:55 PM 71.8 °F 54.9 °F 55% 29.97 in 10.0 mi NNW 21.9 mph 27.6 mph N/A   Clear
1:15 PM 71.8 °F 55.2 °F 56% 29.97 in 10.0 mi North 19.6 mph 27.6 mph N/A   Scattered Clouds
1:35 PM 72.0 °F 55.4 °F 56% 29.97 in 10.0 mi North 26.5 mph 31.1 mph N/A   Scattered Clouds
1:55 PM 67.3 °F 53.4 °F 61% 29.99 in 10.0 mi North 24.2 mph 33.4 mph N/A   Mostly Cloudy
2:15 PM 63.5 °F 49.6 °F 61% 30.02 in 10.0 mi North 24.2 mph 34.5 mph N/A   Overcast
2:35 PM 61.3 °F 47.3 °F 60% 30.04 in 10.0 mi North 20.7 mph 29.9 mph N/A   Overcast
2:55 PM 61.2 °F 46.0 °F 58% 30.05 in 10.0 mi North 18.4 mph - N/A   Overcast
3:15 PM 63.5 °F 45.5 °F 52% 30.06 in 10.0 mi North 17.3 mph 24.2 mph N/A   Mostly Cloudy
3:35 PM 63.7 °F 43.2 °F 47% 30.07 in 10.0 mi North 18.4 mph 28.8 mph N/A   Clear
3:55 PM 63.0 °F 42.1 °F 46% 30.08 in 10.0 mi North 12.7 mph - N/A   Clear
4:15 PM 62.2 °F 40.3 °F 44% 30.09 in 10.0 mi North 16.1 mph - N/A   Clear
4:35 PM 62.1 °F 40.1 °F 44% 30.10 in 10.0 mi North 13.8 mph - N/A   Clear
4:55 PM 61.9 °F 38.7 °F 42% 30.12 in 10.0 mi North 10.4 mph 17.3 mph N/A   Clear
5:15 PM 61.5 °F 35.6 °F 38% 30.13 in 10.0 mi North 12.7 mph - N/A   Clear
5:35 PM 60.6 °F 35.4 °F 39% 30.14 in 10.0 mi North 10.4 mph - N/A   Clear
5:55 PM 60.3 °F 32.2 °F 35% 30.15 in 10.0 mi North 12.7 mph - N/A   Clear
6:15 PM 59.9 °F 31.8 °F 35% 30.16 in 10.0 mi North 11.5 mph - N/A   Clear
6:35 PM 59.0 °F 32.0 °F 36% 30.18 in 10.0 mi North 10.4 mph - N/A   Clear
6:55 PM 58.5 °F 32.0 °F 37% 30.19 in 10.0 mi North 10.4 mph - N/A   Clear
7:15 PM 58.1 °F 32.4 °F 38% 30.21 in 10.0 mi North 8.1 mph - N/A   Clear
7:35 PM 57.0 °F 34.2 °F 42% 30.23 in 10.0 mi North 5.8 mph - N/A   Clear
7:55 PM 55.8 °F 36.0 °F 47% 30.24 in 10.0 mi North 5.8 mph - N/A   Clear
8:15 PM 55.4 °F 36.9 °F 50% 30.25 in 10.0 mi North 4.6 mph - N/A   Clear
8:35 PM 55.8 °F 34.9 °F 45% 30.26 in 10.0 mi North 11.5 mph - N/A   Clear
8:55 PM 56.5 °F 31.1 °F 38% 30.27 in 10.0 mi North 13.8 mph 19.6 mph N/A   Clear
9:15 PM 55.6 °F 31.6 °F 40% 30.28 in 10.0 mi North 8.1 mph - N/A   Clear
9:35 PM 54.7 °F 32.2 °F 42% 30.29 in 10.0 mi North 16.1 mph - N/A   Clear
9:55 PM 54.3 °F 31.1 °F 41% 30.31 in 10.0 mi North 11.5 mph 18.4 mph N/A   Clear
10:15 PM 53.6 °F 29.8 °F 40% 30.32 in 10.0 mi North 13.8 mph - N/A   Clear
10:35 PM 53.1 °F 28.8 °F 39% 30.33 in 10.0 mi North 15.0 mph 20.7 mph N/A   Clear
10:55 PM 52.7 °F 26.6 °F 36% 30.34 in 10.0 mi North 12.7 mph 18.4 mph N/A   Clear
11:15 PM 52.3 °F 25.2 °F 35% 30.36 in 10.0 mi North 13.8 mph 19.6 mph N/A   Clear
11:35 PM 51.8 °F 24.6 °F 35% 30.36 in 10.0 mi North 13.8 mph - N/A   Clear
11:55 PM 51.1 °F 24.8 °F 36% 30.36 in 10.0 mi North 12.7 mph 16.1 mph N/A   Clear